Location: Peebles
(55.6412°N, 3.1714°W)
Time: 09:23:18
(UTC+01:00)

NOSS 3-3 (A) - Pass Details

Date: 04 February 2022
Orbit: 789 x 1423 km, 63.4° (Epoch: 23 April)

Event Time Altitude Azimuth Distance (km) Brightness Sun altitude
Exits shadow 05:35:44 - 201° (SSW) 3,196 6.5 -20.5°
Reaches altitude 10° 05:37:39 10° 196° (SSW) 2,503 6.0 -20.2°
Maximum altitude 05:43:08 46° 125° (SE) 1,258 4.9 -19.4°
Drops below altitude 10° 05:49:26 10° 55° (NE) 2,883 7.2 -18.5°
Sets 05:52:23 0° 50° (NE) 3,946 7.9 -18.1°
